Regional Weather Roundup
Issued by NWS

Home | Current Version | Previous Version | Text Only | Print | Product List | Glossary On
Versions: 1 2 3 4 5 6 7 8 9 10 11 12 13 14 15 16 17 18 19 20 21 22 23 24 25 26 27 28 29 30 31 32 33 34 35 36 37 38 39 40 41 42 43 44 45 46 47 48 49 50
000
ASUS43 KDTX 260310
RWRMI
MICHIGAN HOURLY REGIONAL WEATHER ROUNDUP
NATIONAL WEATHER SERVICE DETROIT/PONTIAC MI
1100 PM EDT MON SEP 25 2017

NOTE: "FAIR" INDICATES FEW OR NO CLOUDS BELOW 12,000 FEET WITH NO
SIGNIFICANT WEATHER AND/OR OBSTRUCTION TO VISIBILITY.

MIZ047>049-052>055-059>063-066>070-074>076-081>083-260400-
SOUTHEAST LOWER MICHIGAN

CITY           SKY/WX    TMP DP  RH WIND       PRES   REMARKS
ADRIAN         CLEAR     70  63  78 CALM      30.00S
ALMA           PTCLDY    64  57  77 CALM      29.98S
ANN ARBOR      CLEAR     65  63  93 CALM      30.00R
BAD AXE        CLEAR     69  63  81 CALM      30.00S
CARO           CLEAR     71  64  80 CALM      29.98S
DETROIT CITY   PTCLDY    74  65  73 CALM      30.00R
DETROIT        MOCLDY    75  69  81 CALM      30.00R
FLINT          CLEAR     74  62  66 S7        29.99S
GROSSE ILE     PTCLDY    74  70  86 S5        29.98S
HILLSDALE      MOCLDY    68  61  77 SE3       30.01R
HOWELL         CLEAR     73  62  68 SE5       30.00S

CITY           SKY/WX    TMP DP  RH WIND       PRES   REMARKS
JACKSON        CLEAR     73  61  65 CALM      30.00R
LAMBERTVILLE   PTCLDY    71  66  85 CALM      29.98F
LANSING        PTCLDY    72  61  68 CALM      29.99S
LAPEER         FAIR      67  65  92 CALM      30.00S
MASON          PTCLDY    76  62  62 S6        29.99S
MONROE         PTCLDY    70  67  90 CALM      29.99S
MT. CLEMENS    PTCLDY    73  70  91 S3        29.98S
PONTIAC        PTCLDY    74  64  71 CALM      29.99S
PORT HOPE        N/A     73  67  81 S5        29.98R
PORT HURON     FOG       66  64  94 CALM      30.00R VSB 1
TRI CITIES     PTCLDY    71  68  90 NE3       29.97F
MIDLAND        FAIR      67  67  99 NW3       29.97S
TROY           PTCLDY    77  62  59 CALM      30.02S
SAGINAW HB     CLEAR     70  63  78 SE5       29.97S
$$
MIZ043>046-050>051-056>058-064>065-071>073-077>080-260400-
SOUTHWEST LOWER MICHIGAN

CITY           SKY/WX    TMP DP  RH WIND       PRES   REMARKS
BATTLE CREEK   CLEAR     72  59  63 SW3       29.99S
BENTON HARBOR  CLEAR     65  61  87 CALM      29.96S
BIG RAPIDS     PTCLDY    64  56  73 CALM      29.98S
COLDWATER      CLEAR     67  64  91 CALM      29.99S
FREMONT        FAIR      65  58  79 CALM      29.97S
HOLLAND        CLEAR     66  59  78 E5        29.97S
GRAND RAPIDS   MOCLDY    70  61  73 S6        29.98R
IONIA          FAIR      69  56  62 S3        29.98R
KALAMAZOO      CLEAR     68  57  68 CALM      29.98S
LUDINGTON      CLEAR     59  58  95 CALM      29.95S
MARSHALL       CLEAR     67  63  86 CALM      29.99R
MOUNT PLEASANT CLEAR     68  61  78 CALM      29.98R
MUSKEGON       PTCLDY    68  59  73 SE3       29.97R
SOUTH HAVEN    CLEAR     66  62  86 CALM      29.97S
$$
MIZ016>042-260400-
NORTHERN LOWER MICHIGAN

CITY           SKY/WX    TMP DP  RH WIND       PRES   REMARKS
ALPENA         CLEAR     66  65  96 CALM      29.98F
BEAVER ISLAND  CLEAR     63  62  98 CALM      29.96S
BELLAIRE       CLEAR     64  61  93 CALM      29.96R
CADILLAC       CLEAR     65  55  70 NW3       30.00R
CHARLEVOIX     CLEAR     66  61  81 SW5       29.98S
GAYLORD        CLEAR     63  57  81 CALM      30.00R
GRAYLING       CLEAR     59  54  84 CALM      30.00R
HARBOR SPRINGS CLEAR     68  63  82 CALM      29.96R
HOUGHTON LAKE  CLEAR     69  63  81 SE5       30.00S
MANISTEE       CLEAR     61  59  93 E7        29.96R
OSCODA         MOCLDY    68  65  91 W6        29.98S
PELLSTON       CLEAR     62  61  96 CALM      29.96S
ROGERS CITY    CLEAR     73  65  76 S8        29.98R
TRAVERSE CITY  CLEAR     69  62  78 CALM      29.95R
$$
MIZ007>008-015-260400-
EASTERN UPPER MICHIGAN

CITY           SKY/WX    TMP DP  RH WIND       PRES   REMARKS
KINROSS        CLEAR     67  63  87 SE6       29.96S
MACKINAC ISLAN CLEAR     69  64  84 CALM      29.96R
NEWBERRY       CLEAR     62  61  97 CALM      29.97R
S. S. MARIE    CLEAR     69  64  84 NE3       29.96S
MUNISING         N/A     64  64 100 N3        29.96R
$$
MIZ004>006-011>014-085-260400-
CENTRAL UPPER MICHIGAN

CITY           SKY/WX    TMP DP  RH WIND       PRES   REMARKS
MANISTIQUE     CLEAR     63  57  81 SE3       29.95S
MENOMINEE      CLEAR     71  62  73 SW5       29.93S
SAWYER-GWINN   DRZL/FOG  61  60  98 N8        29.98S VSB 1/4
$$
MIZ001>003-009>011-084-260400-
WESTERN UPPER MICHIGAN

CITY           SKY/WX    TMP DP  RH WIND       PRES   REMARKS
IRON MOUNTAIN  LGT RAIN  68  63  84 NW12      29.97R
HOUGHTON       RAIN      55  52  89 NE7       30.01R FOG
COPPER HARBOR    N/A     58  55  90 NE12      30.00F
IRONWOOD       CLOUDY    57  57 100 E9        29.99F
$$

ABBREVIATIONS USED IN REMARKS
   TC - TEMPERATURE IN CELSIUS
  WCI - WIND CHILL INDEX
   HX - HEAT INDEX
  VSB - VISIBILITY




USA.gov is the U.S. government's official web portal to all federal, state and local government web resources and services.